Location: Newark
(16.3678°N, 77.8722°E)
Time: 15:26:40
(UTC+00:00)

Vanguard 3 - All Passes

Search period start: 08 December 2019 00:00
Search period end: 18 December 2019 00:00
Orbit: 508 x 3263 km, 33.3° (Epoch: 07 December)

Date Brightness Start Highest point End Pass type
(mag) Time Alt. Az. Time Alt. Az. Time Alt. Az.
08 Dec - 00:06:51 10° SSW 00:11:22 38° SE 00:18:35 10° ENE visible
08 Dec - 02:17:11 10° W 02:23:45 54° NNW 02:35:35 10° NE daylight
08 Dec - 04:30:23 10° WNW 04:39:55 37° N 04:55:02 10° ENE daylight
08 Dec - 06:44:18 10° NW 06:58:28 48° NNE 07:17:25 10° E daylight
08 Dec - 08:58:36 10° WNW 09:17:09 82° NNE 09:36:18 10° ESE daylight
08 Dec - 11:15:29 10° WNW 11:34:07 49° SW 11:49:27 10° SSE daylight
08 Dec - 13:42:50 10° WSW 13:49:08 13° SW 13:54:43 10° SSW visible
08 Dec - 22:56:17 10° SSE 22:58:13 12° SE 23:00:26 10° ESE visible
09 Dec - 01:03:44 10° WSW 01:09:03 82° NNW 01:18:36 10° ENE daylight
09 Dec - 03:15:55 10° WNW 03:23:26 38° N 03:36:05 10° NE daylight
09 Dec - 05:29:28 10° NW 05:40:49 40° NNE 05:57:46 10° ENE daylight
09 Dec - 07:43:07 10° NW 07:59:21 64° NNE 08:19:12 10° ESE daylight
09 Dec - 09:58:05 10° WNW 10:17:12 70° SW 10:35:08 10° SE daylight
09 Dec - 12:18:23 10° W 12:33:08 27° SW 12:45:18 10° S visible
09 Dec - 23:50:59 10° SW 23:55:16 46° SE 00:02:05 10° ENE visible
10 Dec - 02:01:50 10° W 02:07:51 44° NNW 02:18:19 10° NE daylight
10 Dec - 04:14:57 10° WNW 04:23:47 35° N 04:37:53 10° ENE daylight
10 Dec - 06:28:13 10° NW 06:41:41 50° NNE 07:00:36 10° E daylight
10 Dec - 08:41:58 10° WNW 08:59:46 88° NNE 09:19:27 10° ESE daylight
10 Dec - 10:58:47 10° WNW 11:16:43 44° SW 11:32:30 10° SSE daylight
10 Dec - 13:29:18 10° SW 13:32:26 11° SW 13:35:24 10° SSW visible
10 Dec - 22:39:33 10° S 22:42:05 16° SE 22:45:06 10° E visible
11 Dec - 00:48:13 10° WSW 00:53:08 65° NNW 01:01:38 10° NE daylight
11 Dec - 03:00:39 10° WNW 03:07:32 33° N 03:18:48 10° NE daylight
11 Dec - 05:13:45 10° NW 05:24:25 40° NNE 05:40:50 10° E daylight
11 Dec - 07:26:45 10° NW 07:42:12 69° NNE 08:02:19 10° ESE daylight
11 Dec - 09:41:25 10° WNW 09:59:44 63° SW 10:18:09 10° SE daylight
11 Dec - 12:02:15 10° W 12:16:02 23° SW 12:28:01 10° S daylight
11 Dec - 23:35:12 10° SW 23:39:17 60° SE 23:45:37 10° ENE visible
12 Dec - 01:46:34 10° W 01:52:02 36° NNW 02:01:07 10° NE daylight
12 Dec - 03:59:32 10° NW 04:07:44 33° N 04:20:47 10° ENE daylight
12 Dec - 06:12:09 10° NW 06:24:54 52° NNE 06:43:41 10° E daylight
12 Dec - 08:25:27 10° WNW 08:42:22 85° SW 09:02:26 10° SE daylight
12 Dec - 10:42:18 10° W 10:59:21 39° SW 11:15:20 10° SSE daylight
12 Dec - 22:23:09 10° S 22:26:01 20° SE 22:29:31 10° E visible
13 Dec - 00:32:49 10° W 00:37:20 50° NNW 00:44:45 10° NE visible
13 Dec - 02:45:27 10° WNW 02:51:42 29° N 03:01:38 10° NE daylight
13 Dec - 04:58:00 10° NW 05:08:02 40° NNE 05:23:53 10° E daylight
13 Dec - 07:10:28 10° NW 07:25:04 74° NNE 07:45:17 10° ESE daylight
13 Dec - 09:24:55 10° WNW 09:42:17 57° SW 10:00:59 10° SE daylight
13 Dec - 11:46:30 10° W 11:59:01 20° SW 12:10:27 10° S daylight
13 Dec - 23:19:30 10° SW 23:23:24 82° SSE 23:29:12 10° ENE visible
14 Dec - 01:31:25 10° WNW 01:36:19 29° N 01:44:02 10° NE daylight
14 Dec - 03:44:06 10° NW 03:51:43 31° NNE 04:03:47 10° ENE daylight
14 Dec - 05:56:08 10° NW 06:08:08 55° NNE 06:26:39 10° E daylight
14 Dec - 08:09:04 10° WNW 08:25:02 78° SW 08:45:13 10° SE daylight
14 Dec - 10:26:04 10° W 10:42:04 34° SW 10:57:57 10° SSE daylight
14 Dec - 22:06:54 10° SSW 22:10:04 27° SE 22:13:48 10° E visible
15 Dec - 00:17:30 10° W 00:21:37 37° NNW 00:27:56 10° NE visible
15 Dec - 02:30:16 10° NW 02:35:55 25° N 02:44:34 10° NE daylight
15 Dec - 04:42:16 10° NW 04:51:41 40° NNE 05:06:55 10° E daylight
15 Dec - 06:54:16 10° NW 07:07:58 80° NNE 07:28:03 10° ESE daylight
15 Dec - 09:08:36 10° WNW 09:24:56 51° SW 09:43:35 10° SSE daylight
15 Dec - 11:31:14 10° WSW 11:42:07 17° SW 11:52:30 10° S daylight
15 Dec - 23:03:53 10° WSW 23:07:37 72° NNW 23:12:50 10° NE visible
16 Dec - 01:16:21 10° WNW 01:20:40 24° N 01:27:01 10° NE daylight
16 Dec - 03:28:40 10° NW 03:35:42 30° NNE 03:46:52 10° ENE daylight
16 Dec - 05:40:09 10° NW 05:51:23 59° NNE 06:09:32 10° ESE daylight
16 Dec - 07:52:50 10° WNW 08:07:47 70° SW 08:27:49 10° SE daylight
16 Dec - 10:10:07 10° W 10:24:55 30° SW 10:40:20 10° SSE daylight
16 Dec - 21:50:46 10° SW 21:54:12 38° SE 21:58:02 10° ENE visible
17 Dec - 00:02:18 10° WNW 00:05:59 28° NNW 00:11:10 10° NE visible
17 Dec - 02:15:07 10° NW 02:20:10 22° N 02:27:38 10° NE daylight
17 Dec - 04:26:31 10° NW 04:35:20 42° NNE 04:49:56 10° E daylight
17 Dec - 06:38:08 10° WNW 06:50:56 87° NNE 07:10:42 10° ESE daylight
17 Dec - 08:52:28 10° WNW 09:07:42 44° SW 09:26:00 10° SSE daylight
17 Dec - 11:16:39 10° WSW 11:25:24 14° SW 11:33:59 10° S daylight
17 Dec - 20:38:50 10° S 20:40:42 13° SE 20:42:29 10° ESE night (unlit)
17 Dec - 22:48:20 10° WSW 22:51:55 49° NNW 22:56:29 10° NE visible
